Location: Schommer Observatory
(40.5200°N, 74.4500°W)
Time: 07:30:25
(UTC-05:00)

N. Korean satellite - Pass Details

Date: 17 November 2017
Orbit: 460 x 515 km, 97.2° (Epoch: 18 November)

Event Time Altitude Azimuth Distance (km) Brightness Sun altitude
Rises 17:35:23 0° 153° (SSE) 2,478 10.0 -11.0°
Reaches altitude 10° 17:37:27 10° 146° (SSE) 1,613 9.0 -11.3°
Maximum altitude 17:40:45 43° 74° (ENE) 667 6.8 -11.9°
Drops below altitude 10° 17:44:07 10° 2° (N) 1,648 9.1 -12.6°
Sets 17:46:16 0° 356° (N) 2,540 10.1 -13.0°
